sat.trackr.live / text

‹ back to catalog

BUCCANEER MM

NORAD 63245 · 2025-052AM

PAYLOAD ACTIVE UNKNOWN

§ Identity

Operator
Country
AUS
Launch date
2025-03-15
Launch site
AFWTR
Launch vehicle
Mass (kg)
RCS (m²)

External: N2YO · Heavens-Above · Gunter

§ Orbital elements

Epoch: 2026-09-22T21:25:41.413152Z

Period
96.31 min
Inclination
97.6707°
Eccentricity
0.0002526
Mean motion
14.95094256 rev/d
Perigee alt
580.3 km
Apogee alt
583.8 km
Semi-major
6,960.2 km
B*
1.3741e-4
RAAN
154.8554°
Arg perigee
238.2764°
Mean anomaly
121.8210°
Rev number
8,319

§ Raw data

BUCCANEER MM1 63245U 25052AM  26265.89284043  .00001450  00000+0  13741-3 0  99912 63245  97.6707 154.8554 0002526 238.2764 121.8210 14.95094256 83198

JSON: /api/v1/satellites/63245 · /tle

For live sub-satellite position, see the globe view (requires WebGL).

§ Visibility from observer

Set your observer location to see the next 7 days of passes ≥ 10°. The values pass through the URL so the page stays shareable.

No JS? Fill the form by hand. The geolocation button needs JavaScript.

§ Radio — SatNOGS DB

ModeDescriptionDownlinkUplink
FSK Apogee TT&C Beacon 400.800 MHz

1 transmitter · refreshed weekly from db.satnogs.org